FW7729 Weather Reports


Display with metric or nautical units.
time (UTC)temp
F
wind
direction
speed
MPH
gust
MPH
rain 1hr
in
rain 24hr
in
rain mn
in
humidity
%
barometer
mb
20260503220130 60 304 0.0 0.0 0.00 0.00 0.00 47 1013.8
20260503214456 60 295 1.0 0.0 0.00 0.00 0.00 45 1013.7
20260503213348 60 328 1.0 0.0 0.00 0.00 0.00 46 1013.9
20260503212244 60 223 2.0 0.0 0.00 0.00 0.00 46 1013.9
20260503211140 60 297 1.0 0.0 0.00 0.00 0.00 46 1014.0
20260503210606 60 299 1.0 0.0 0.00 0.00 0.00 47 1014.0
20260503210032 60 213 1.0 0.0 0.00 0.00 0.00 49 1013.8
20260503205458 60 295 1.0 0.0 0.00 0.00 0.00 46 1014.1
20260503204924 60 281 2.0 0.0 0.00 0.00 0.00 46 1014.3
20260503204350 59 231 3.0 0.0 0.00 0.00 0.00 46 1014.0
20260503203816 59 354 0.0 0.0 0.00 0.00 0.00 45 1013.9
20260503203241 59 286 2.0 0.0 0.00 0.00 0.00 45 1014.1
20260503202708 59 260 1.0 0.0 0.00 0.00 0.00 47 1014.0
20260503202133 59 302 2.0 0.0 0.00 0.00 0.00 48 1014.2
20260503201559 59 288 0.0 0.0 0.00 0.00 0.00 49 1014.3
20260503200455 58 320 1.0 0.0 0.00 0.00 0.00 48 1014.5
20260503195921 58 311 1.0 0.0 0.00 0.00 0.00 48 1014.6
20260503193717 58 339 0.0 0.0 0.00 0.00 0.00 48 1014.8
20260503193143 58 325 1.0 0.0 0.00 0.00 0.00 49 1015.0
20260503192609 58 337 2.0 0.0 0.00 0.00 0.00 51 1015.3
20260503191505 58 328 1.0 0.0 0.00 0.00 0.00 48 1015.3
20260503190931 58 289 3.0 0.0 0.00 0.00 0.00 49 1015.4
20260503185826 57 247 4.0 0.0 0.00 0.00 0.00 50 1015.5
20260503184722 57 228 3.0 0.0 0.00 0.00 0.00 50 1015.6
20260503183618 57 270 2.0 0.0 0.00 0.00 0.00 52 1015.7
20260503182514 56 354 2.0 0.0 0.00 0.00 0.00 52 1015.7
20260503181940 56 255 4.0 0.0 0.00 0.00 0.00 51 1015.9
20260503181406 56 269 1.0 0.0 0.00 0.00 0.00 54 1015.8
20260503180832 56 256 1.0 0.0 0.00 0.00 0.00 52 1015.8
20260503180258 56 259 2.0 0.0 0.00 0.00 0.00 52 1015.9
20260503175724 56 226 4.0 0.0 0.00 0.00 0.00 52 1016.0
20260503175150 56 343 1.0 0.0 0.00 0.00 0.00 53 1016.0
20260503174046 55 287 2.0 0.0 0.00 0.00 0.00 52 1016.1
20260503173512 56 262 2.0 0.0 0.00 0.00 0.00 53 1016.2
20260503171256 55 291 2.0 0.0 0.00 0.00 0.00 54 1016.2
20260503170722 55 275 3.0 1.0 0.00 0.00 0.00 53 1016.2
20260503170148 54 247 1.0 0.0 0.00 0.00 0.00 55 1016.3
20260503110709 40 308 0.0 0.0 0.00 0.00 0.00 87 1016.1
20260503110135 39 308 0.0 0.0 0.00 0.00 0.00 89 1016.1
20260503081510 41 308 0.0 0.0 0.00 0.00 0.00 85 1014.4
20260503080936 41 308 0.0 0.0 0.00 0.00 0.00 85 1014.4
20260503080402 41 308 0.0 0.0 0.00 0.00 0.00 84 1014.3
20260503071937 43 308 0.0 0.0 0.00 0.00 0.00 79 1014.1
20260503071403 43 308 0.0 0.0 0.00 0.00 0.00 79 1014.1
20260503070829 43 308 0.0 0.0 0.00 0.00 0.00 78 1014.1
20260503070255 44 310 0.0 0.0 0.00 0.00 0.00 78 1014.0
20260503060157 45 301 0.0 0.0 0.00 0.00 0.00 76 1013.7
20260503054523 45 335 0.0 0.0 0.00 0.00 0.00 78 1013.6
20260503053949 45 335 0.0 0.0 0.00 0.00 0.00 78 1013.6
20260503053414 45 335 0.0 0.0 0.00 0.00 0.00 78 1013.5
20260503052840 45 336 0.0 0.0 0.00 0.00 0.00 78 1013.6
20260503052307 45 336 0.0 0.0 0.00 0.00 0.00 78 1013.6
20260503051202 46 322 0.0 0.0 0.00 0.00 0.00 78 1013.8
20260503050628 46 322 0.0 0.0 0.00 0.00 0.00 77 1013.7
20260503050054 46 322 0.0 0.0 0.00 0.00 0.00 76 1013.6
20260503044950 46 322 0.0 0.0 0.00 0.00 0.00 76 1013.8
20260503044416 46 301 0.0 0.0 0.00 0.00 0.00 75 1013.8
20260503043842 47 301 0.0 0.0 0.00 0.00 0.00 75 1013.9
20260503043308 47 301 0.0 0.0 0.00 0.00 0.00 75 1013.8
20260503042734 47 301 0.0 0.0 0.00 0.00 0.00 74 1013.8
20260503042200 47 301 0.0 0.0 0.00 0.00 0.00 74 1013.9
20260503041626 48 301 0.0 0.0 0.00 0.00 0.00 73 1013.8
20260503041052 48 301 0.0 0.0 0.00 0.00 0.00 73 1013.8
20260503040518 48 301 0.0 0.0 0.00 0.00 0.00 73 1013.7
20260503035944 48 301 0.0 0.0 0.00 0.00 0.00 72 1013.8
20260503035410 49 301 0.0 0.0 0.00 0.00 0.00 72 1013.8
20260503033736 49 300 0.0 0.0 0.00 0.00 0.00 71 1013.8
20260503032632 49 31 0.0 0.0 0.00 0.00 0.00 70 1013.8
20260503032058 50 31 0.0 0.0 0.00 0.00 0.00 70 1013.7
20260503031524 50 307 0.0 0.0 0.00 0.00 0.00 69 1013.6
20260503030950 50 47 0.0 0.0 0.00 0.00 0.00 69 1013.5
20260503025846 50 48 0.0 0.0 0.00 0.00 0.00 69 1013.5
20260503024742 50 337 1.0 0.0 0.00 0.00 0.00 68 1013.5
20260503024208 50 299 0.0 0.0 0.00 0.00 0.00 67 1013.6
20260503023633 50 299 0.0 0.0 0.00 0.00 0.00 68 1013.6
20260503021959 51 198 0.0 0.0 0.00 0.00 0.00 67 1013.5
20260503015755 51 198 0.0 0.0 0.00 0.00 0.00 67 1013.2
20260503013551 51 198 0.0 0.0 0.00 0.00 0.00 69 1013.2
20260503013017 51 198 0.0 0.0 0.00 0.00 0.00 68 1013.1
20260503010242 51 198 0.0 0.0 0.00 0.00 0.00 68 1012.8
20260503005708 51 198 0.0 0.0 0.00 0.00 0.00 69 1012.7
20260503005134 51 198 0.0 0.0 0.00 0.00 0.00 72 1012.6
20260503004600 51 198 0.0 0.0 0.00 0.00 0.00 70 1012.4
20260503004026 52 198 0.0 0.0 0.00 0.00 0.00 69 1012.2
20260503003452 52 198 0.0 0.0 0.00 0.00 0.00 68 1012.2
20260503002348 52 197 0.0 0.0 0.00 0.00 0.00 68 1012.3
20260503001814 52 198 0.0 0.0 0.00 0.00 0.00 67 1012.1
20260503001240 53 198 0.0 0.0 0.00 0.00 0.00 66 1012.0
20260503000706 53 198 0.0 0.0 0.00 0.00 0.00 65 1011.9
20260503000132 53 198 0.0 0.0 0.00 0.00 0.00 64 1011.9
20260502235028 54 197 0.0 0.0 0.00 0.00 0.00 63 1011.8
20260502233924 54 196 0.0 0.0 0.00 0.00 0.00 62 1011.6
20260502231719 54 31 0.0 0.0 0.00 0.00 0.00 61 1011.5
20260502231145 54 31 0.0 0.0 0.00 0.00 0.00 63 1011.4
20260502230611 54 31 0.0 0.0 0.00 0.00 0.00 61 1011.5
20260502230037 54 31 0.0 0.0 0.00 0.00 0.00 61 1011.5
20260502224403 54 27 0.0 0.0 0.00 0.00 0.00 60 1011.4
20260502223829 55 27 0.0 0.0 0.00 0.00 0.00 59 1011.4
20260502223255 55 27 0.0 0.0 0.00 0.00 0.00 59 1011.4
20260502222721 55 48 0.0 0.0 0.00 0.00 0.00 59 1011.3
20260502221617 55 268 0.0 0.0 0.00 0.00 0.00 58 1011.3
20260502221043 55 259 0.0 0.0 0.00 0.00 0.00 60 1011.5